Kerkyra, Greece

10:43 AM EEST on May 25, 2018 (GMT +0300)
Ioannis Kapodistrias

Weather History for LGKR - November, 2012

Change the Weather History Date:

Thursday, November 8, 2012

  Actual Average Record
Temperature  
Mean Temperature 60 °F -  
Max Temperature 71 °F 64 °F 78 °F (2016)
Min Temperature 48 °F 48 °F 41 °F (2007)
Degree Days  
Heating Degree Days 5    
Growing Degree Days 10 (Base 50)    
Moisture  
Dew Point 52 °F    
Average Humidity 79    
Maximum Humidity 94    
Minimum Humidity 50    
Precipitation  
Precipitation 0.00 in 0.24 in - ()
Sea Level Pressure  
Sea Level Pressure 30.11 in    
Wind  
Wind Speed 2 mph ()    
Max Wind Speed 8 mph    
Max Gust Speed -    
Visibility 8.4 miles    
Events      
Averages and records for this station are not official NWS values.
T = Trace of Precipitation, MM = Missing Value Source: Averaged Metar Reports

Daily Weather History Graph

Daily Weather History Graph

Search for Another Location

Airport or City:

Astronomy

Nov. 08, 2012 Rise Set
Actual Time 7:16 AM EET 5:30 PM EET
Civil Twilight 6:48 AM EET 5:59 PM EET
Nautical Twilight 6:16 AM EET 6:31 PM EET
Astronomical Twilight 5:44 AM EET 7:02 PM EET
Moon 12:54 AM EET (11/8) 2:01 PM EET (11/8)
Length of Visible Light 11h 10m
Length of Day
10h 13m
Waning Crescent, 36% of the Moon is Illuminated
Nov 8
Waning Crescent
Nov 14
New
Nov 20
First Quarter
Nov 28
Full
Dec 6
Last Quarter

Hourly Weather History & Observations

Time (EET) Temp. Dew Point Humidity Pressure Visibility Wind Dir Wind Speed Gust Speed Precip Events Conditions
12:20 AM 60.8 °F 50.0 °F 68% 30.09 in 6.2 mi SW 8.1 mph - N/A   Partly Cloudy
1:50 AM 57.2 °F 50.0 °F 77% 30.06 in - West 4.6 mph - N/A   Clear
2:00 AM 58 °F 51 °F 70% 30.09 in 6 mi West 4.6 mph - -  
2:20 AM 59.0 °F 50.0 °F 72% 30.09 in - North 5.8 mph - N/A   Clear
2:50 AM 57.2 °F 51.8 °F 82% 30.09 in - NW 3.5 mph - N/A   Clear
3:20 AM 55.4 °F 51.8 °F 88% 30.09 in - Calm Calm - N/A   Clear
3:50 AM 55.4 °F 51.8 °F 88% 30.09 in - Calm Calm - N/A   Clear
4:20 AM 53.6 °F 50.0 °F 88% 30.09 in - Calm Calm - N/A   Clear
4:50 AM 51.8 °F 50.0 °F 94% 30.09 in - Calm Calm - N/A   Clear
5:20 AM 51.8 °F 50.0 °F 94% 30.09 in - Calm Calm - N/A   Clear
5:50 AM 51.8 °F 50.0 °F 94% 30.09 in - Calm Calm - N/A   Clear
6:20 AM 53.6 °F 50.0 °F 88% 30.09 in - West 3.5 mph - N/A   Clear
6:50 AM 55.4 °F 48.2 °F 77% 30.09 in - South 3.5 mph - N/A   Clear
7:20 AM 55.4 °F 48.2 °F 77% 30.09 in - South 3.5 mph - N/A   Clear
7:50 AM 50.0 °F 48.2 °F 94% 30.12 in - Calm Calm - N/A   Clear
8:00 AM 50 °F 48 °F 91% 30.12 in 12 mi Calm Calm - -  
8:20 AM 51.8 °F 48.2 °F 88% 30.12 in - Calm Calm - N/A   Clear
8:50 AM 55.4 °F 50.0 °F 82% 30.12 in - Calm Calm - N/A   Clear
9:20 AM 57.2 °F 50.0 °F 77% 30.12 in - Calm Calm - N/A   Clear
9:50 AM 62.6 °F 55.4 °F 77% 30.12 in - Calm Calm - N/A   Clear
10:20 AM 64.4 °F 55.4 °F 73% 30.12 in - Calm Calm - N/A   Clear
10:50 AM 64.4 °F 55.4 °F 73% 30.15 in - NW 3.5 mph - N/A   Clear
11:20 AM 66.2 °F 55.4 °F 68% 30.15 in - Calm Calm - N/A   Clear
11:50 AM 68.0 °F 55.4 °F 64% 30.15 in - Calm Calm - N/A   Clear
12:20 PM 68.0 °F 55.4 °F 64% 30.15 in - Calm Calm - N/A   Clear
12:50 PM 68.0 °F 55.4 °F 64% 30.12 in - Calm Calm - N/A   Clear
1:20 PM 68.0 °F 55.4 °F 64% 30.12 in - Calm Calm - N/A   Clear
1:50 PM 69.8 °F 55.4 °F 60% 30.12 in - Calm Calm - N/A   Clear
2:00 PM 69 °F 54 °F 50% 30.14 in 12 mi Calm Calm - -  
2:20 PM 69.8 °F 55.4 °F 60% 30.12 in - Calm Calm - N/A   Clear
2:50 PM 69.8 °F 53.6 °F 56% 30.12 in - Calm Calm - N/A   Clear
3:20 PM 69.8 °F 53.6 °F 56% 30.12 in - South 5.8 mph - N/A   Clear
3:50 PM 71.6 °F 53.6 °F 53% 30.09 in - Calm Calm - N/A   Clear
4:20 PM 71.6 °F 53.6 °F 53% 30.09 in - Calm Calm - N/A   Clear
4:50 PM 68.0 °F 59.0 °F 73% 30.09 in - Calm Calm - N/A   Clear
5:20 PM 66.2 °F 59.0 °F 78% 30.09 in - Calm Calm - N/A   Clear
5:50 PM 64.4 °F 57.2 °F 77% 30.09 in - Calm Calm - N/A   Clear
6:20 PM 64.4 °F 57.2 °F 77% 30.09 in - Calm Calm - N/A   Clear
6:50 PM 62.6 °F 57.2 °F 82% 30.12 in - West 3.5 mph - N/A   Clear
7:20 PM 62.6 °F 57.2 °F 82% 30.12 in - West 3.5 mph - N/A   Clear
7:50 PM 59.0 °F 57.2 °F 94% 30.12 in - Calm Calm - N/A   Clear
8:00 PM 58 °F 56 °F 92% 30.13 in 6 mi Calm Calm - -  
8:20 PM 55.4 °F 53.6 °F 94% 30.12 in - West 3.5 mph - N/A   Clear
8:50 PM 51.8 °F 50.0 °F 94% 30.12 in - West 3.5 mph - N/A   Clear
9:20 PM 50.0 °F 48.2 °F 94% 30.12 in - WNW 3.5 mph - N/A   Clear
9:50 PM 50.0 °F 48.2 °F 94% 30.12 in - WNW 3.5 mph - N/A   Clear
10:20 PM 50.0 °F 48.2 °F 94% 30.12 in - WNW 3.5 mph - N/A   Clear
10:50 PM 50.0 °F 48.2 °F 94% 30.12 in - West 4.6 mph - N/A   Clear
11:20 PM 50.0 °F 48.2 °F 94% 30.12 in - Calm Calm - N/A   Clear
11:50 PM 48.2 °F 46.4 °F 93% 30.09 in - Calm Calm - N/A   Clear